This is the latest recevied weather packets stored in our database for station/object E22ZMG-3. If no packets are shown the sender has not sent any weather packets the latest 10 day(s).
| Time | Temp. | Humidity | Pressure | Rain* | Wind** | Luminosity | Snow |
|---|---|---|---|---|---|---|---|
| 1777940800 | 31.11° C | 59% | 979 hPa | - | - | 0 W/m² | - |
| 1777940176 | 30.56° C | 61% | 979 hPa | - | - | 0 W/m² | - |
| 1777939551 | 31.11° C | 58% | 979 hPa | - | - | 0 W/m² | - |
| 1777938927 | 30.56° C | 61% | 979 hPa | - | - | 0 W/m² | - |
| 1777938303 | 31.11° C | 59% | 978 hPa | - | - | 0 W/m² | - |
| 1777937679 | 31.11° C | 60% | 978 hPa | - | - | 0 W/m² | - |
| 1777937054 | 30.56° C | 61% | 978 hPa | - | - | 0 W/m² | - |
| 1777936430 | 30° C | 62% | 978 hPa | - | - | 0 W/m² | - |
| 1777935805 | 29.44° C | 63% | 978 hPa | - | - | 0 W/m² | - |
| 1777935181 | 30.56° C | 60% | 978 hPa | - | - | 0 W/m² | - |
| 1777934557 | 30.56° C | 61% | 977 hPa | - | - | 0 W/m² | - |
| 1777933933 | 30.56° C | 59% | 977 hPa | - | - | 0 W/m² | - |
| 1777933306 | 31.11° C | 58% | 977 hPa | - | - | 0 W/m² | - |
| 1777932683 | 30° C | 62% | 977 hPa | - | - | 0 W/m² | - |
| 1777932058 | 29.44° C | 63% | 977 hPa | - | - | 0 W/m² | - |
| 1777931434 | 30.56° C | 60% | 977 hPa | - | - | 0 W/m² | - |
| 1777930810 | 30.56° C | 59% | 977 hPa | - | - | 0 W/m² | - |
| 1777930186 | 30.56° C | 59% | 977 hPa | - | - | 0 W/m² | - |
| 1777929561 | 31.11° C | 58% | 977 hPa | - | - | 0 W/m² | - |
| 1777928937 | 31.11° C | 57% | 977 hPa | - | - | 0 W/m² | - |
| 1777928313 | 31.11° C | 58% | 977 hPa | - | - | 0 W/m² | - |
| 1777927688 | 31.11° C | 58% | 977 hPa | - | - | 0 W/m² | - |
| 1777927063 | 31.67° C | 57% | 977 hPa | - | - | 0 W/m² | - |
| 1777926439 | 31.11° C | 59% | 978 hPa | - | - | 0 W/m² | - |
| 1777925815 | 30.56° C | 59% | 978 hPa | - | - | 0 W/m² | - |
* Rain since midnight (hover to see other rain measurements)
** Current wind speed in m/s (hover to see current wind gust speed)